Regional Weather Roundup
Issued by NWS

Home | Current Version | Previous Version | Graphics & Text | Print | Product List | Glossary On
Versions: 1 2 3 4 5 6 7 8 9 10 11 12 13 14 15 16 17 18 19 20 21 22 23 24 25 26 27 28 29 30 31 32 33 34 35 36 37 38 39 40 41 42 43 44 45 46 47 48 49 50
000
ASUS45 KABQ 192310
RWRNM
WEATHER ROUNDUP FOR NEW MEXICO
NATIONAL WEATHER SERVICE ALBUQUERQUE NM
400 PM MST FRI DEC 19 2014

NOTE: "FAIR" MEANS FEW OR NO CLOUDS BELOW 12,000 FEET AGL WITH NO
       SIGNIFICANT WEATHER OR OBSTRUCTIONS TO VISION.

      THIS PRODUCT IS RELEASED AS TWO VERSIONS.  ONE VERSION NEAR
      THE TOP OF THE HOUR CONTAINING PRELIMINARY DATA FROM ALBUQUERQUE
      AND OTHER STATIONS.  A FINAL VERSION WITH ADDITIONAL DATA IS
      ISSUED ABOUT 10 MINUTES AFTER THE HOUR.

NMZ501-503-504-510>518-200000-
NORTHWEST PLATEAU/NORTHCENTRAL MOUNTAINS

CITY           SKY/WX    TMP DP  RH WIND       PRES   REMARKS
FARMINGTON     CLEAR     38  24  57 W12       30.17S WCI  30
LOS ALAMOS     CLEAR     34  22  61 CALM      30.15S
SANTA FE       CLEAR     38  19  46 N13       30.13S WCI  30
TAOS           CLEAR     36  14  41 NW3       30.14S
ANGEL FIRE     FAIR      28  17  63 W15       30.11S WCI  16

$$
NMZ402-403-502-505>509-200000-
WESTCENTRAL MOUNTAINS/SOUTHWEST MOUNTAINS

CITY           SKY/WX    TMP DP  RH WIND       PRES   REMARKS
GALLUP         MOSUNNY   39  25  57 SE6       30.18S WCI  35
GRANTS         CLEAR     38  21  50 N9        30.20S WCI  32
SILVER CITY    SUNNY     48  28  46 S5        30.16F

$$
NMZ407-409-411-412-200000-
SOUTHERN DESERTS

CITY           SKY/WX    TMP DP  RH WIND       PRES   REMARKS
LORDSBURG      FAIR      46  32  57 CALM      30.16S
DEMING         SUNNY     52  29  41 CALM      30.14F
LAS CRUCES     SUNNY     51  25  36 N3        30.15F
HOLLOMAN AFB   SUNNY     49  30  47 VRB7      30.13S
ALAMOGORDO     CLEAR     48  28  46 NW10      30.14S
T OR C         SUNNY     49  26  41 E6        30.14S

$$
NMZ519>523-200000-
CENTRAL VALLEYS/CENTRAL HIGHLANDS

CITY           SKY/WX    TMP DP  RH WIND       PRES   REMARKS
ALBUQUERQUE    PTCLDY    43  23  45 NW17      30.17F
DOUBLE EAGLE   PTCLDY    39  25  56 NW16      30.17F WCI  30
MORIARTY ARPT  FAIR      41  20  42 NW12      30.13S
CLINES CORNERS CLEAR     36  22  56 NW21      30.09S WCI  25
BELEN          FAIR      44  24  44 CALM      30.17F
SOCORRO        FAIR      47  24  39 NE5       30.16S

$$
NMZ524>526-539-540-200000-
SOUTHCENTRAL MOUNTAINS

CITY           SKY/WX    TMP DP  RH WIND       PRES   REMARKS
RUIDOSO        CLEAR     39  19  45 NW13G20   30.15R WCI  32

$$
NMZ527>531-200000-
NORTHEAST HIGHLANDS/NORTHEAST PLAINS

CITY           SKY/WX    TMP DP  RH WIND       PRES   REMARKS
LAS VEGAS      CLEAR     43  15  32 S12       30.05S
RATON          CLEAR     43  14  31 S8        30.03R
CLAYTON        CLEAR     48  23  37 CALM      30.06R

$$
NMZ532>537-200000-
EASTCENTRAL PLAINS

CITY           SKY/WX    TMP DP  RH WIND       PRES   REMARKS
TUCUMCARI      CLEAR     46  30  53 E5        30.08S
CANNON AFB     CLEAR     46  29  52 NW7       30.10R
CLOVIS AIRPORT CLEAR     46  28  49 NW7       30.09R

$$
NMZ028-029-538-200000-
SOUTHEAST PLAINS

CITY           SKY/WX    TMP DP  RH WIND       PRES   REMARKS
ROSWELL        CLEAR     58  22  24 NW5       30.07F
ARTESIA        CLEAR     55  28  35 SE5       30.09S
CARLSBAD       PTCLDY    56  33  42 E8        30.08R
HOBBS          CLEAR     55  21  26 W9        30.10R


$$



USA.gov is the U.S. government's official web portal to all federal, state and local government web resources and services.